TimeEST,TemperatureF,Dew PointF,Humidity,Sea Level PressureIn,VisibilityMPH,Wind Direction,Wind SpeedMPH,Gust SpeedMPH,PrecipitationIn,Events,Conditions,WindDirDegrees,DateUTC
12:15 AM,53.6,53.6,100,30.26,6.0,Calm,Calm,-,0.00,,Clear,0,2012-12-05 05:15:00
12:35 AM,53.6,53.6,100,30.26,9.0,Calm,Calm,-,0.00,,Clear,0,2012-12-05 05:35:00
12:55 AM,53.6,53.6,100,30.26,5.0,Calm,Calm,-,0.00,,Clear,0,2012-12-05 05:55:00
1:15 AM,53.6,53.6,100,30.25,5.0,Calm,Calm,-,0.00,,Clear,0,2012-12-05 06:15:00
1:35 AM,53.6,53.6,100,30.25,6.0,Calm,Calm,-,0.00,,Clear,0,2012-12-05 06:35:00
1:55 AM,51.8,51.8,100,30.25,4.0,Calm,Calm,-,0.00,,Clear,0,2012-12-05 06:55:00
2:15 AM,51.8,51.8,100,30.24,5.0,Calm,Calm,-,0.00,,Clear,0,2012-12-05 07:15:00
2:55 AM,51.8,51.8,100,30.23,6.0,Calm,Calm,-,0.00,,Clear,0,2012-12-05 07:55:00
3:15 AM,51.8,51.8,100,30.23,8.0,Calm,Calm,-,0.00,,Clear,0,2012-12-05 08:15:00
3:35 AM,51.8,51.8,100,30.22,10.0,Calm,Calm,-,0.00,,Clear,0,2012-12-05 08:35:00
3:55 AM,51.8,51.8,100,30.22,9.0,Calm,Calm,-,0.00,,Clear,0,2012-12-05 08:55:00
4:15 AM,51.8,51.8,100,30.21,8.0,Calm,Calm,-,0.00,,Clear,0,2012-12-05 09:15:00
4:35 AM,50.0,50.0,100,30.20,3.0,Calm,Calm,-,0.00,,Clear,0,2012-12-05 09:35:00
4:55 AM,50.0,50.0,100,30.20,8.0,Calm,Calm,-,0.00,,Clear,0,2012-12-05 09:55:00
5:15 AM,50.0,50.0,100,30.20,9.0,Calm,Calm,-,0.00,,Clear,0,2012-12-05 10:15:00
5:35 AM,50.0,50.0,100,30.20,8.0,Calm,Calm,-,0.00,,Clear,0,2012-12-05 10:35:00
6:50 AM,55.4,53.6,94,30.22,10.0,Calm,Calm,-,N/A,,Clear,0,2012-12-05 11:50:00
7:50 AM,59.0,57.2,94,30.23,10.0,Calm,Calm,-,N/A,,Scattered Clouds,0,2012-12-05 12:50:00
9:50 AM,68.0,57.2,68,30.26,10.0,Calm,Calm,-,N/A,,Clear,0,2012-12-05 14:50:00
10:55 AM,69.8,55.4,60,30.24,10.0,Calm,Calm,-,N/A,,Clear,0,2012-12-05 15:55:00
11:50 AM,71.6,51.8,50,30.21,10.0,West,4.6,-,N/A,,Clear,260,2012-12-05 16:50:00
12:50 PM,71.6,57.2,60,30.18,10.0,Calm,Calm,-,N/A,,Clear,0,2012-12-05 17:50:00
1:50 PM,71.6,57.2,60,30.14,10.0,Calm,Calm,-,N/A,,Clear,0,2012-12-05 18:50:00
2:55 PM,71.6,55.4,57,30.13,10.0,Calm,Calm,-,N/A,,Clear,0,2012-12-05 19:55:00
3:50 PM,69.8,69.8,100,30.12,10.0,Calm,Calm,-,N/A,,Clear,0,2012-12-05 20:50:00
4:50 PM,64.4,64.4,100,30.13,10.0,Calm,Calm,-,N/A,,Clear,0,2012-12-05 21:50:00
5:50 PM,60.8,60.8,100,30.13,10.0,South,3.5,-,N/A,,Clear,180,2012-12-05 22:50:00
6:50 PM,57.2,57.2,100,30.14,10.0,South,3.5,-,N/A,,Clear,180,2012-12-05 23:50:00
7:50 PM,55.4,55.4,100,30.14,10.0,Calm,Calm,-,N/A,,Clear,0,2012-12-06 00:50:00
8:15 PM,55.4,55.4,100,30.15,10.0,SSW,3.5,-,0.00,,Clear,200,2012-12-06 01:15:00
8:35 PM,55.4,55.4,100,30.15,10.0,Calm,Calm,-,0.00,,Clear,0,2012-12-06 01:35:00
8:50 PM,55.4,55.4,100,30.15,10.0,Calm,Calm,-,N/A,,Clear,0,2012-12-06 01:50:00
8:55 PM,55.4,55.4,100,30.15,10.0,Calm,Calm,-,0.00,,Clear,0,2012-12-06 01:55:00
9:15 PM,55.4,55.4,100,30.15,10.0,Calm,Calm,-,0.00,,Clear,0,2012-12-06 02:15:00
9:35 PM,55.4,55.4,100,30.15,10.0,Calm,Calm,-,0.00,,Clear,0,2012-12-06 02:35:00
9:55 PM,57.2,57.2,100,30.15,10.0,Calm,Calm,-,0.00,,Clear,0,2012-12-06 02:55:00
10:15 PM,57.2,57.2,100,30.15,10.0,Calm,Calm,-,0.00,,Clear,0,2012-12-06 03:15:00
10:55 PM,57.2,57.2,100,30.15,10.0,Calm,Calm,-,0.00,,Clear,0,2012-12-06 03:55:00
11:15 PM,57.2,57.2,100,30.15,10.0,Calm,Calm,-,0.00,,Clear,0,2012-12-06 04:15:00
11:35 PM,57.2,57.2,100,30.15,10.0,Calm,Calm,-,0.00,,Clear,0,2012-12-06 04:35:00
11:55 PM,57.2,57.2,100,30.14,10.0,Calm,Calm,-,0.00,,Clear,0,2012-12-06 04:55:00